Wetbulb
43.02 42.37 42.78 42.96 42.66 42.93 43.47 44.58 45.90 46.71 47.34 48.78 49.48 50.78 52.92 52.90 52.91 52.31 51.72 49.11 48.88 49.54
42.53 42.55 42.41 42.93 43.24 43.09 43.67 45.68 45.71 46.91 47.44 48.26 49.83 50.92 53.25 52.67 52.47 52.03 51.62 49.21 49.40 48.37
42.22 43.08 43.23 43.04 42.74 43.58 44.33 46.01 46.43 46.84 47.60 48.32 48.83 50.55 53.11 52.62 52.12 51.42 50.95 50.26 49.84 49.71
41.69 42.58 42.88 42.65 42.90 44.30 45.87 46.50 46.71 46.86 47.40 47.76 48.50 50.23 52.58 52.75 51.91 50.94 50.62 50.34 49.81 49.36
41.82 42.32 41.99 42.54 43.60 45.75 45.75 46.64 46.79 47.75 47.37 48.25 49.68 51.27 52.84 52.04 51.61 50.57 49.91 49.88 49.76 49.36
40.89 41.32 41.87 43.03 44.76 45.29 45.11 45.41 46.13 48.09 47.34 48.70 49.19 51.42 52.54 52.43 51.53 51.02 50.54 50.44 49.98 49.57
40.34 41.47 42.38 43.60 45.10 45.32 45.39 44.88 46.50 47.00 48.28 49.02 49.36 51.26 52.82 52.13 51.44 51.09 50.98 50.92 50.70 50.29
41.14 42.08 42.63 44.03 44.31 45.26 46.09 46.89 47.30 46.45 48.33 49.28 49.19 51.43 52.18 52.42 51.24 51.27 50.72 50.14 50.46 50.42
41.05 41.79 42.36 43.38 43.37 45.27 45.70 46.36 47.34 47.04 46.95 47.07 47.52 44.55 46.67 50.17 51.32 50.24 49.42 47.18 45.14 43.47
40.22 40.69 42.18 42.54 44.20 44.68 44.93 45.42 45.47 45.39 45.39 45.82 46.69 42.61 42.49 44.04 49.51 48.36 47.11 45.32 43.40 41.14
39.36 39.04 40.14 40.61 43.34 44.05 43.78 43.72 43.45 43.24 43.83 44.32 43.25 42.11 42.61 42.27 46.71 45.52 44.76 44.00 43.21 42.43
39.73 38.68 38.66 40.88 42.19 42.97 42.42 41.84 41.74 41.37 42.42 42.84 41.64 40.80 42.23 44.51 43.58 41.79 40.68 41.27 42.10 41.79
39.00 39.70 39.37 39.26 39.07 38.02 38.79 36.95 35.15 36.08 37.82 36.30 40.65 40.88 41.04 43.53 41.74 38.33 35.59 36.22 36.75 35.91
37.36 38.13 40.36 39.05 37.55 37.30 35.87 35.40 35.25 34.98 34.76 35.87 36.84 40.03 41.65 41.74 40.89 37.04 34.63 34.38 33.68 34.34
MSLP
1016.57 1016.63 1016.66 1016.82 1016.97 1016.99 1016.96 1017.22 1017.40 1017.00 1016.52 1016.17 1015.92 1015.65 1015.42 1015.42 1015.43 1015.62 1015.96 1016.39 1016.80 1017.18
1016.65 1016.73 1016.67 1016.82 1016.96 1016.96 1016.87 1016.90 1017.29 1017.03 1016.70 1016.47 1016.09 1015.89 1015.79 1015.88 1015.85 1015.87 1016.14 1016.64 1017.08 1017.51
1016.59 1016.79 1016.86 1017.01 1017.14 1016.92 1016.85 1016.78 1017.00 1017.14 1016.88 1016.71 1016.45 1016.17 1016.03 1016.26 1016.50 1016.69 1017.00 1017.26 1017.56 1018.02
1016.44 1016.64 1016.83 1016.84 1017.04 1017.10 1016.81 1016.76 1016.87 1017.04 1016.93 1016.77 1016.59 1016.36 1016.24 1016.45 1016.82 1017.03 1017.43 1017.88 1018.12 1018.64
1016.36 1016.50 1016.68 1016.79 1016.69 1016.96 1016.92 1016.88 1016.86 1016.94 1016.88 1016.72 1016.57 1016.35 1016.46 1016.70 1017.02 1017.31 1017.74 1018.20 1018.55 1019.05
1016.36 1016.50 1016.52 1016.64 1016.62 1016.80 1016.96 1016.98 1016.86 1016.95 1016.80 1016.83 1016.74 1016.55 1016.73 1017.00 1017.23 1017.56 1017.93 1018.36 1018.84 1019.26
1016.18 1016.38 1016.44 1016.40 1016.65 1016.67 1016.88 1016.92 1016.85 1016.83 1016.86 1016.81 1016.85 1016.71 1016.85 1017.12 1017.48 1017.85 1018.29 1018.69 1019.17 1019.53
1015.85 1016.03 1016.31 1016.35 1016.49 1016.68 1016.74 1016.88 1017.04 1016.70 1016.97 1016.87 1016.94 1016.83 1016.99 1017.25 1017.61 1017.94 1018.54 1019.06 1019.48 1019.92
1015.71 1015.90 1016.23 1016.44 1016.50 1016.62 1016.62 1016.86 1016.96 1016.80 1017.04 1017.05 1017.04 1017.03 1017.19 1017.36 1017.75 1018.20 1018.57 1019.34 1019.99 1020.42
1015.59 1015.99 1016.19 1016.63 1016.50 1016.61 1016.70 1016.78 1016.93 1017.04 1017.12 1017.21 1017.26 1017.39 1017.54 1017.66 1017.97 1018.45 1019.04 1019.57 1020.10 1020.77
1015.74 1015.98 1016.02 1016.58 1016.63 1016.61 1016.87 1016.90 1017.07 1017.28 1017.15 1017.40 1017.45 1017.62 1017.94 1018.18 1018.42 1018.85 1019.34 1019.84 1020.35 1020.80
1015.46 1015.98 1016.27 1016.18 1016.72 1016.69 1016.88 1017.12 1017.33 1017.46 1017.35 1017.44 1017.79 1017.84 1018.06 1018.37 1018.90 1019.40 1019.90 1020.21 1020.63 1021.08
1015.11 1015.60 1016.22 1016.13 1016.64 1016.97 1016.86 1017.42 1017.51 1017.84 1017.78 1017.78 1017.92 1018.12 1018.37 1018.56 1019.12 1019.80 1020.32 1020.68 1020.99 1021.30
1015.23 1015.30 1015.90 1016.21 1016.48 1016.94 1017.23 1017.49 1017.90 1018.03 1018.19 1018.23 1018.30 1018.42 1018.51 1018.77 1019.21 1019.83 1020.58 1020.94 1021.37 1021.64
Wind_Speed
2 1 2 2 1 1 1 2 5 5 5 5 5 5 4 3 3 4 4 8 7 6
3 2 1 3 0 1 1 2 3 5 6 5 4 5 4 4 5 6 6 7 9 7
4 2 0 2 2 2 2 1 3 4 6 5 5 4 4 4 5 7 5 5 9 8
3 3 2 2 2 3 2 1 3 4 5 4 4 3 3 6 6 8 7 7 8 8
5 5 3 4 3 1 4 2 4 2 3 4 3 4 6 6 7 8 8 8 9 7
5 4 4 4 2 1 3 3 2 1 2 4 4 3 5 6 6 7 6 8 8 8
6 5 5 3 2 0 1 3 2 2 1 1 2 1 6 6 6 6 5 6 7 8
6 5 4 4 2 1 1 2 4 2 1 3 2 3 6 7 7 8 7 6 6 5
6 6 5 4 4 3 2 3 3 2 2 1 2 6 10 7 7 6 8 8 6 6
6 5 6 3 4 3 3 2 2 2 1 2 3 2 8 10 6 7 6 7 7 6
5 5 5 4 3 3 2 3 2 1 3 2 2 6 11 10 6 6 6 6 6 8
6 6 5 6 4 3 3 2 2 0 2 5 3 5 12 10 6 7 6 5 6 7
6 7 5 6 6 2 3 3 3 2 4 3 4 7 4 9 5 6 4 5 6 8
5 7 6 5 4 5 4 5 4 4 2 4 2 3 8 9 5 6 4 4 3 3
Wind_Direction
202 199 219 98 44 86 79 356 348 331 339 354 358 350 13 42 74 83 71 86 93 99
187 254 259 87 357 240 218 77 346 334 334 356 7 1 54 51 59 71 72 88 100 98
183 197 290 54 299 305 296 81 34 4 344 6 357 20 85 86 76 84 75 84 98 101
165 173 202 201 262 270 290 19 55 33 347 354 343 28 107 101 106 99 103 105 105 100
189 182 194 227 227 83 316 360 83 19 342 321 355 10 118 115 118 117 118 114 113 104
195 178 205 230 156 120 270 297 99 103 329 3 344 37 111 114 115 116 123 123 122 128
182 195 209 197 136 168 344 304 302 142 272 351 330 327 130 129 119 112 115 119 129 137
179 182 204 141 175 200 241 270 272 148 184 21 304 170 128 137 133 130 120 108 112 117
174 176 175 173 151 206 199 249 240 132 98 9 344 154 137 129 123 118 127 120 98 102
175 180 156 187 168 183 202 194 169 124 122 137 105 118 115 116 119 118 113 114 116 92
175 173 150 161 178 158 156 156 147 133 119 136 102 143 129 116 107 105 112 123 126 130
173 175 189 155 182 157 140 137 102 61 121 136 102 129 136 121 119 115 115 117 124 129
173 157 197 164 160 169 124 126 121 87 54 90 134 125 122 125 126 121 123 104 113 122
185 161 176 162 150 152 137 126 126 112 62 76 77 140 146 142 138 140 129 127 116 105